Regional Weather Roundup
Issued by NWS Pendleton, OR

Home | Current Version | Previous Version | Text Only | Print | Product List | Glossary On
Versions: 1 2 3 4 5 6 7 8 9 10 11 12 13 14 15 16 17 18 19 20 21 22 23 24 25 26 27 28 29 30 31 32 33 34 35 36 37 38 39 40 41 42 43 44 45 46 47 48 49 50
576
ASUS46 KPDT 230625
RWRPDT
PENDLETON REGIONAL WEATHER ROUNDUP
NATIONAL WEATHER SERVICE PENDLETON OREGON
1100 PM PDT FRI SEP 22 2017

NOTE: FAIR INDICATES FEW OR NO CLOUDS BELOW 12,000 FEET WITH NO
SIGNIFICANT WEATHER AND/OR OBSTRUCTIONS TO VISIBILITY.

# INDICATES UNOFFICIAL STATION AND DATA

WAZ520-230710-
EAST SLOPES OF WASHINGTON CASCADES

CITY            SKY/WX      TMP DP  RH  WIND    PRES   REMARKS
#BULLFROG       N/A         53  44  71  W2      N/A
#CLE ELUM HS    N/A         52  42  69  W2      29.97R
#CLE ELUM LAKE  N/A         48  41  77  CALM    30.00S
#EASTON DOT     N/A         49  43  80  N1      N/A
#ELK HTS DOT    N/A         52  52  100 CALM    N/A
#GLENWOOD       N/A         44  42  93  CALM    30.03S
#NELSON 3SW     N/A         48  40  74  CALM    30.22S
#NILE           N/A         46  42  86  CALM    29.31R
#TEANAWAY 4NE   N/A         48  44  86  CALM    N/A
#TROUT LAKE 1NE N/A         45  44  96  CALM    30.04S
#TROUT LAKE 1E  N/A         44  42  93  CALM    30.06S
$$

WAZ521-230710-
SIMCOE HIGHLANDS

CITY            SKY/WX      TMP DP  RH  WIND    PRES   REMARKS
#BICKLETON HS   N/A         50  41  71  W3      29.99R
#CENTERVILLE 1SWN/A         51  42  71  CALM    29.98S
#GOLDENDALE 1NE N/A         52  37  56  SE1     N/A
#GOLDENDALE 4W  N/A         52  31  44  CALM    30.06F
#GOODNOE HILLS  N/A         54  47  77  W5      N/A
#LYLE 6NE       N/A         52  46  80  E1      30.03S
#PITT 4SE       N/A         47  43  86  CALM    30.06S
$$

WAZ026-230710-
KITTITAS VALLEY

CITY            SKY/WX      TMP DP  RH  WIND    PRES   REMARKS
ELLENSBURG AP   PTCLDY      51  43  74  W5      30.01S
6HR MIN TEMP:   51; 6HR MAX TEMP:   62;

#ELLENSBURG CWU N/A         53  43  69  NW1     29.95S
#ELLENSBURG 3NE N/A         51  44  77  CALM    28.09S
#ELLENSBURG 1E  N/A         51  45  80  CALM    30.04S
#KITTITAS 3S    N/A         48  43  83  E1      29.99S
#MANASTASH RDG  N/A         51  51  100 NW1     N/A
#ROCKY CYN DOT  N/A         53  43  69  NW6     N/A
#RYEGRASS DOT   N/A         51  38  61  W8      N/A
$$

WAZ027-230710-
YAKIMA VALLEY

CITY            SKY/WX      TMP DP  RH  WIND    PRES   REMARKS
SUNNYSIDE AP    MOCLDY      47  45  93  N3      30.01F
YAKIMA AIRPORT  CLOUDY      53  44  71  W6      30.02S
6HR MIN TEMP:   53; 6HR MAX TEMP:   64;

YAKIMA-VAGABOND MOCLDY      53  41  64  CALM    30.00S
6HR MIN TEMP:   53; 6HR MAX TEMP:   61; 6HR PCP:  0.01;

#DONALD 2NE     N/A         54  24  31  W1      30.01S
#GRANDVIEW      N/A         52  44  74  CALM    30.02S
#MABTON         N/A         52  45  77  CALM    30.01S
#MOXEE 2E       N/A         51  N/A N/A CALM    29.95R
#NACHES 2SW     N/A         53  44  71  W1      30.01S
#OUTLOOK DOT    N/A         53  46  77  CALM    29.98S
#PARKER DOT     N/A         55  43  64  CALM    30.00S
#TERRACE HTS    N/A         52  44  74  CALM    29.98S
#TOPPENISH      N/A         54  47  77  CALM    29.93S
#I82 S UMTANUM RN/A         51  38  61  CALM    N/A
#UNION GAP DOT  N/A         52  45  77  CALM    30.04S
#W YAKIMA       N/A         53  43  69  CALM    30.00F
#WHITE SWAN 5E  N/A         51  43  74  CALM    30.01S
#WILEY CITY 3W  N/A         51  37  59  CALM    29.99S
#ZILLAH DOT     N/A         53  45  74  NE2     N/A
$$

WAZ028-230710-
LOWER COLUMBIA BASIN...WASHINGTON

CITY            SKY/WX      TMP DP  RH  WIND    PRES   REMARKS
PASCO           CLOUDY      57  45  64  E10     30.03R
6HR MIN TEMP:   57; 6HR MAX TEMP:   69;

PROSSER AWOS    N/A         52  46  80  CALM    30.04S
RICHLAND AWOS   CLOUDY      59  45  60  SE5     30.02S
#BENTON CITY    N/A         53  43  69  CALM    29.92S
#CONNELL 5N     N/A         49  43  80  CALM    30.01S
#CONNELL 5NW    N/A         51  44  77  CALM    29.97R
#ELTOPIA 6NW    N/A         51  44  77  CALM    28.98S
#KAHLOTUS       N/A         51  42  71  SW5     30.01S
#KENNEWICK 3S   N/A         56  44  64  SW2     30.02R
#PATERSON       N/A         52  45  77  CALM    30.00R
#PROSSER DOT    N/A         52  47  83  CALM    30.02S
#SAGEMOOR 2W    N/A         52  45  77  CALM    29.88S
#TOUCHET 2S     N/A         49  43  80  NW1     30.01S
#WEST PASCO     N/A         56  46  69  CALM    30.00R
$$

WAZ029-230710-
FOOTHILLS OF THE BLUES...WASHINGTON

CITY            SKY/WX      TMP DP  RH  WIND    PRES   REMARKS
WALLA WALLA AP  CLOUDY      56  41  57  SE8     30.02S
6HR MIN TEMP:   53; 6HR MAX TEMP:   63;

#CLYDE 6NW      N/A         51  42  71  S3      30.02R
#DAYTON SCHOOL  N/A         49  37  63  E5      30.03S
#LOWDEN 2SE     N/A         52  46  80  CALM    30.00R
#PLEASANT VIEW 1N/A         50  42  74  S6      30.05S
#PRESCOTT       N/A         50  46  86  CALM    30.01F
#WAITSBURG 6SSE N/A         49  40  71  E1      30.04S
#WALLA WALLA 5E N/A         53  44  71  S7      N/A
#WHITMAN MISSIONN/A         52  45  77  CALM    30.03F
$$

WAZ030-230710-
BLUE MOUNTAINS...WASHINGTON

CITY            SKY/WX      TMP DP  RH  WIND    PRES   REMARKS
#DIXIE 5SE      N/A         45  39  79  N7      29.96S
$$

ORZ009-041-WAZ024-230710-
COLUMBIA RIVER GORGE

CITY            SKY/WX      TMP DP  RH  WIND    PRES   REMARKS
THE DALLES AP   CLOUDY      59  48  67  NW12    30.03R
6HR MIN TEMP:   59; 6HR MAX TEMP:   65;

#CELILO DOT     N/A         60  42  51  SW2     N/A
#LYLE           N/A         58  50  75  CALM    30.04S
#MARYHILL       N/A         56  44  64  N5      N/A
#MURDOCK        N/A         58  51  77  NW7     29.99S
#RUFUS DOT      N/A         61  N/A N/A W3      N/A
#SMITHVILLE     N/A         57  50  77  N6      29.98R

$$

ORZ510-230710-
NORTH CENTRAL OREGON

CITY            SKY/WX      TMP DP  RH  WIND    PRES   REMARKS
#ANTELOPE       N/A         47  40  76  CALM    29.93R
#CHENOWITH 1W   N/A         51  45  80  W16     N/A
#COW CYN RST AREN/A         51  36  56  NW1     N/A
#DUFUR          N/A         49  44  83  CALM    29.99S
#DUFUR 9E       N/A         52  40  63  SW5     30.08S
#GRASS VALLEY 1SN/A         51  43  74  CALM    30.06S
#KENT DOT       N/A         50  32  50  N1      N/A
#MAUPIN SCHOOL  N/A         56  44  64  CALM    30.08S
#MORO SCHOOL    N/A         51  48  89  CALM    30.03S
#SHANIKO 5WSW   N/A         48  32  54  CALM    N/A
#SHANIKO 4NW    N/A         47  38  71  CALM    30.04S
#TYGH VALLEY 2NEN/A         54  45  71  CALM    30.03R
#WAPANITIA AIRPON/A         51  43  74  CALM    30.05S
#WASCO DOT      N/A         53  42  66  SE1     N/A
#WASCO 5NE      N/A         52  44  74  CALM    30.01S
$$

ORZ511-230710-
CENTRAL OREGON

CITY            SKY/WX      TMP DP  RH  WIND    PRES   REMARKS
BEND AIRPORT    CLOUDY      48  37  65  W3      30.07S
MADRAS AIRPORT  CLOUDY      52  52  100 NW6     30.08R
PRINEVILLE AP   CLOUDY      43  37  79  CALM    30.07R
REDMOND AIRPORT CLOUDY      48  36  63  SE3     30.06R
6HR MIN TEMP:   47; 6HR MAX TEMP:   57;

#ASHWOOD SCHOOL N/A         49  43  80  SE3     30.02R
#BEND 1SW       N/A         44  36  73  CALM    N/A
#BEND-AWBREY    N/A         46  38  73  CALM    30.06S
#BEND-KIM LN    N/A         47  39  74  CALM    30.00S
#CULVER         N/A         49  40  71  CALM    29.93S
#CULVER 8W      N/A         51  39  63  CALM    30.06S
#LAKE BILLY CHINN/A         53  N/A N/A E2      30.12S
#MADRAS 4S      N/A         49  11  21  CALM    N/A
#POWELL BUTTE   N/A         46  39  76  CALM    30.01S
#PRINEVILLE     N/A         45  40  82  CALM    30.15S
#PRINEVILLE 3N  N/A         46  41  83  E5      30.05S
#WARM SPRINGS   N/A         54  42  64  CALM    29.90S

$$


ORZ509-230710-
EAST SLOPES OF OREGON CASCADES

CITY            SKY/WX      TMP DP  RH  WIND    PRES   REMARKS
SISTERS AWOS    N/A         46  39  76  CALM    N/A
#CAMP SHERMAN   N/A         44  39  82  CALM    30.11F
#LA PINE 4NW    N/A         37  32  82  CALM    30.13R
#LAVA BUTTE DOT N/A         43  31  62  CALM    N/A
#SISTERS ODOT   N/A         46  40  79  CALM    N/A
#SISTERS 3N     N/A         45  37  73  CALM    30.06S
#SUNRIVER       N/A         39  35  85  CALM    30.09R
#TUMALO 3W      N/A         47  36  65  NW2     29.94R
#WANOGA BUTTE D N/A         36  31  82  NE1     N/A

$$

ORZ044-230710-
LOWER COLUMBIA BASIN...OREGON

CITY            SKY/WX      TMP DP  RH  WIND    PRES   REMARKS
HERMISTON       MOCLDY      49  44  83  SE6     30.02S
6HR MIN TEMP:   49; 6HR MAX TEMP:   67;

#BOARDMAN SCHOOLN/A         50  41  71  CALM    30.01R
#BOARDMAN 8SW   N/A         49  42  77  SW5     30.02S
#ECHO 8SW       N/A         48  41  77  SW2     30.03R
#I-84 EX 198 DOTN/A         50  40  68  NE8     N/A
#IONE SCHOOL    N/A         47  28  47  CALM    30.04S
#UMATILLA       N/A         53  42  66  CALM    29.95R
$$

ORZ507-230710-
NORTHERN FOOTHILLS OF THE BLUES

CITY            SKY/WX      TMP DP  RH  WIND    PRES   REMARKS
PENDLETON AIRPT PTCLDY      47  40  76  SE9     30.03S
6HR MIN TEMP:   46; 6HR MAX TEMP:   61;

#ADAMS 3WNW     N/A         42  38  86  CALM    30.03S
#ATHENA         N/A         44  40  86  CALM    30.07R
#CAYUSE         N/A         48  41  77  E6      30.03S
#HELIX SCHOOL   N/A         44  40  86  CALM    30.04R
#HELIX 3N       N/A         47  40  76  S7      30.01R
#HOLDMAN 5SE    N/A         46  41  83  SE2     30.02S
#HOLDMAN 6E     N/A         48  41  77  CALM    29.84R
#M-F GROVE ELEM N/A         52  40  63  CALM    30.00F
#M-FREEWATER 5SEN/A         51  42  71  CALM    30.02S
#PDT AQUATIC CTRN/A         46  37  71  CALM    30.02S
#PDT SUNRIDGE   N/A         43  39  86  CALM    30.05R
#PENDLETON 7NW  N/A         45  38  76  CALM    29.43F
#PILOT ROCK     N/A         44  37  76  CALM    30.06R
#TUTUILLA       N/A         42  38  86  CALM    30.07R
#UMAPINE 2E     N/A         51  44  77  CALM    30.00S
#WESTON SCHOOL  N/A         48  39  71  CALM    29.96S

$$

ORZ508-230710-
SOUTHERN FOOTHILLS OF THE BLUES

CITY            SKY/WX      TMP DP  RH  WIND    PRES   REMARKS
LEXINGTON       PTCLDY      46  39  76  SE10    30.07S
#AJAX           N/A         53  36  52  W1      30.19R
#FOSSIL SCHOOL  N/A         44  39  82  CALM    30.00R
#HEPPNER EOC    N/A         44  38  79  E8      29.98S
#HEPPNER 4NE    N/A         44  37  76  S1      30.04S
#LEXINGTON 2SE  N/A         48  39  71  SE10    30.01R
#MIKKALO        N/A         51  39  63  CALM    30.13S
#OLEX 4N        N/A         50  42  74  S6      30.01S
#RUGGS 5NE      N/A         40  37  89  CALM    30.20S
#RUGGS 2SW      N/A         44  37  76  SW7     30.07S

$$

ORZ502-503-230710-
BLUE MOUNTAINS

CITY            SKY/WX      TMP DP  RH  WIND    PRES   REMARKS
MEACHAM         PTCLDY      31  29  92  CALM    30.05R FOG
6HR MIN TEMP:   31; 6HR MAX TEMP:   49;

#BATTLE MTN DOT N/A         35  33  92  SW1     N/A
#GRANITE        N/A         33  27  78  N1      29.98S
#GREENHORN 9SW  N/A         31  29  92  CALM    26.25R
#HEPPNER 15SE   N/A         33  30  89  CALM    29.95S
#LADD CYN SMT   N/A         40  39  96  SW1     N/A
#LADD CREEK ODOTN/A         41  33  73  CALM    N/A
#LONG CREEK HS  N/A         37  37  100 CALM    30.05S
#N POWDER DOT   N/A         43  40  89  N8      N/A
#PIKES PEAK     N/A         47  38  71  CALM    27.99S
#TOLLGATE       N/A         35  34  96  CALM    29.89S
#TROY SCHOOL    N/A         46  42  86  NW2     29.91S
#UKIAH          N/A         32  30  92  CALM    30.00R
#WESTON 4E      N/A         43  38  82  E3      30.03S
$$

ORZ505-230710-
JOHN DAY BASIN

CITY            SKY/WX      TMP DP  RH  WIND    PRES   REMARKS
JOHN DAY        PTCLDY      42  36  79  CALM    30.05S
#JOHN DAY KJDY  N/A         37  N/A N/A CALM    29.03R
#ANTELOPE 9ESE  N/A         52  40  63  CALM    N/A
#DAYVILLE SCHOOLN/A         43  34  70  CALM    30.01S
#MITCHELL       N/A         38  37  96  E2      30.22S
#MONUMENT HS    N/A         43  36  76  CALM    30.01R
#MT. VERNON 5SE N/A         40  34  79  CALM    29.99S
#SPRAY SCHOOL   N/A         43  N/A N/A CALM    N/A
#WINLOCK        N/A         43  35  73  CALM    30.00S
$$

ORZ506-230710-
OCHOCO AND JOHN DAY HIGHLANDS

CITY            SKY/WX      TMP DP  RH  WIND    PRES   REMARKS
#HORSE RIDGE DO N/A         36  29  75  CALM    N/A
#IZEE 6NW       N/A         32  29  89  CALM    N/A
#PAULINA ODOT   N/A         39  33  79  SW2     N/A
#PINE MTN OBS   N/A         34  32  92  N6      N/A
#PRAIRIE CITY   N/A         34  29  82  CALM    30.19R
#SENECA         N/A         29  N/A N/A CALM    N/A
#SENECA 9NW     N/A         29  26  88  CALM    30.05R
$$

ORZ049-230710-
GRANDE RONDE VALLEY

CITY            SKY/WX      TMP DP  RH  WIND    PRES   REMARKS
LA GRANDE       PTCLDY      39  39  100 CALM    30.05F FOG
#COVE           N/A         40  40  100 CALM    30.06F
#COVE SCHOOL    N/A         40  39  96  CALM    30.06S
#COVE 6NW       N/A         42  39  89  CALM    30.07S
#ELGIN 3N       N/A         38  36  92  CALM    30.45S
#ELGIN 1E       N/A         40  35  82  CALM    N/A
#IMBLER SCHOOL  N/A         38  36  92  CALM    30.01F
#ISLAND CITY 4N N/A         52  50  93  CALM    30.06S
#LA GRANDE-LEFFEN/A         42  39  89  N2      30.44F
#UNION 1S       N/A         41  38  89  CALM    30.06F
$$

ORZ050-230710-
WALLOWA COUNTY

CITY            SKY/WX      TMP DP  RH  WIND    PRES   REMARKS
JOSEPH AIRPORT  CLOUDY      37  36  96  CALM    30.06R
#ENTERPRISE HS  N/A         37  34  89  CALM    29.99R
#IMNAHA SCHOOL  N/A         49  43  80  CALM    30.04S
#JOSEPH         N/A         38  37  96  CALM    30.24S
#JOSEPH 3N      N/A         35  29  78  CALM    30.06S
#JOSEPH 3W      N/A         36  35  96  CALM    30.40S
#LOSTINE        N/A         39  36  89  CALM    29.89S
#LOSTINE 3SE    N/A         39  37  92  CALM    30.09R
#MT HOWARD 8000 N/A         27  26  96  CALM    30.00S
#PROMISE 1S     N/A         37  35  92  SW1     30.16F
#WALLOWA LAKE   N/A         38  36  92  CALM    30.08R
#WALLOWA SCHOOL N/A         39  37  92  CALM    30.02S



$$



USA.gov is the U.S. government's official web portal to all federal, state and local government web resources and services.